Etusivu
METAR-TAF:

METAR-TAF

Lentoasemat :

Lycksele, Ruotsi

Leveyspiiri: 64-32-51N, Pituuspiiri: 018-43-03E, korkeus merenpinnasta: 211 m

Tämänhetkinen sää

Tämä raportti tehtiin 23 minuuttia sitten, kello 23.50 UTC
Tuuli 1 kn lännestä
Lämpötila 2°C
Kosteus 87%
Ilmanpaine 1012 hPa
Näkyvyys 10 km tai enemmän

METAR: ESNL 282350Z AUTO 28001KT 9999 FEW070/// 02/00 Q1012

Aika: 02:13 (00:13 UTC)


TAF: puuttuu

Säähavainnot ja -ennusteet yli 4000 lentoasemalta (METAR- ja TAF-raportit).

Käytössä olevat sääasemat on merkitty karttaan keltaisilla ja punaisilla pisteillä.

Aseta hiiri pisteen päälle nähdäksesi sääaseman nimen.

Klikkaa sitten nähdäksesi säähavainnot ja -ennusteet.

Kartan vaihtaminen: klikkaa mustalla rastilla varustettuja vihreitä pisteitä, niin voit zoomata sisään; viivalla varustettua vihreää pistettä, niin voit zoomata ulos tai vihreitä nuolia, niin pääset viereisille kartoille.


METAR-TAF: